CZ-6A R/B, 67434

Orbit data source: Space-Track

CZ-6A R/B, 67434 is space debris in LEO originally from a launch on Tue, 13 Jan 2026 UTC launched from the Taiyaun Space Center, China (TSC). Debris objects in space refer to the collection of defunct objects orbiting the Earth. Examples of debris include non-operational satellites, rocket bodies, and fragments generated from explosions, collisions, or faulty payload assembly.

Loading next visibility...
Identifier
67434, 2026-006B
Orbit
LEO
Country
Flag of CNCN / PRC
Related business
Manufacturer
SAST
Mission
Spacecraft
Bus & Motor
CZ-6A STAGE 2, YF-115
Mass
~6,000 kg wet, ~6,000 kg dry
Launch date (UTC)
2026-01-13 (8 months ago)
Launch vehicle
Unknown
Launch site
Taiyaun Space Center, China (TSC)
Object type
Payload
Rocket body
Debris
Shape & HBR
CYL, 3.6 m
Radar Cross Section
Large (>1 m²)

Expand to show TLE details & history
Last TLE update: 18 hours ago

TLE from 18 hours ago
0 CZ-6A R/B
1 67434U 26006B   26256.45550478  .00000639  00000-0  44498-4 0  9998
2 67434 142.0456  85.3805 0200543  67.7961 294.3942 14.62656086 35574
Epoch: 2026-09-13T10:55Z
TLE epoch observation values (Epoch: 2026-09-13T10:55:55.612Z)
Latitude
-0.00001°
Longitude
-71.05112°
Altitude
627.751 km
Speed
7.576 km/s
True Right ascension
05h 41m 31s
True Declination
0° 00' 00"
Sunlit
Object was in daylight at epoch
Visualization orbit readout
Latitude
Unknown
Longitude
Unknown
Altitude
Unknown
Speed
Unknown
Apparent Right ascension
Unknown
Apparent Declination
Unknown
Sunlit
N/A
Visualization observer readout
Local Sidereal Time
21:30:03
Azimuth
Unknown
Elevation
Unknown
Doppler factor
Unknown
Orbital elements
Apogee altitude
829.008 km
Perigee altitude
545.622 km
Semi-major axis
7,065.452 km
Eccentricity
0.02005
Inclination
142.0456°
RAAN
85.3805°
Arg. of periapsis
67.7961°
True anomaly
292.2799°
Mean anomaly
294.3942°
Eccentric anomaly
293.33919°
Mean motion
3.65454 °/min
Orbital period
98.51 mins
BSTAR
0.000044498
Loading maneuver chart data...
Computing Atmospheric mass density...
Loading historical data...
Loading historical data...
Loading historical data...
Loading historical data...
Loading historical data...
Loading historical data...
Loading historical data...
Other satellites on launch #6 in the year 2026 (2026-01-13 UTC)

Documentation

Showing up to 5 results
|